Weather History for Meridian NAS, MS

Change the Weather History Date:

Thursday, January 3, 2013

  Actual Average Record
Temperature  
Mean Temperature 39 °F -  
Max Temperature 48 °F 55 °F 79 °F (2000)
Min Temperature 30 °F 37 °F 13 °F (2001)
Degree Days  
Heating Degree Days 26    
Moisture  
Dew Point 27 °F    
Average Humidity 70    
Maximum Humidity 89    
Minimum Humidity 33    
Precipitation  
Precipitation 0.01 in - - ()
Sea Level Pressure  
Sea Level Pressure 30.36 in    
Wind  
Wind Speed 5 mph (NNW)    
Max Wind Speed 13 mph    
Max Gust Speed 16 mph    
Visibility 9 miles    
Events      
Averages and records for this station are not official NWS values.
T = Trace of Precipitation, MM = Missing Value Source: NWS Daily Summary

Daily Weather History Graph

Daily Weather History Graph

Search for Another Location

Airport:

Trip Planner

Search our weather history database for the weather conditions in past years. The results will help you decide how hot, cold, wet, or windy it might be!

Date:

Astronomy

Jan. 03, 2013 Rise Set
Actual Time 6:56 AM CST 5:01 PM CST
Civil Twilight 6:29 AM CST 5:28 PM CST
Nautical Twilight 5:58 AM CST 5:59 PM CST
Astronomical Twilight 5:29 AM CST 6:28 PM CST
Moon 11:12 PM CST (1/3) 10:29 AM CST (1/3)
Length of Visible Light 10h 58m
Length of Day
10h 04m
Waning Gibbous, 65% of the Moon is Illuminated
Jan 3
Waning Gibbous
Jan 4
Last Quarter
Jan 11
New
Jan 18
First Quarter
Jan 26
Full

Hourly Weather History & Observations

Time (CST) Temp. Windchill Dew Point Humidity Pressure Visibility Wind Dir Wind Speed Gust Speed Precip Events Conditions
12:03 AM 37.4 °F - 32.0 °F 81% 30.24 in 8.0 mi Calm Calm - N/A   Mostly Cloudy
12:56 AM 36.0 °F 33.3 °F 32.0 °F 86% 30.28 in 8.0 mi North 3.5 mph - N/A   Mostly Cloudy
1:56 AM 36.0 °F 31.1 °F 32.0 °F 86% 30.30 in 7.0 mi NNW 5.8 mph - N/A   Overcast
2:56 AM 36.0 °F 31.1 °F 30.9 °F 82% 30.32 in 7.0 mi NNW 5.8 mph - N/A   Overcast
3:18 AM 35.6 °F 30.7 °F 30.2 °F 81% 30.27 in 7.0 mi NNW 5.8 mph - N/A   Mostly Cloudy
3:29 AM 35.6 °F 27.1 °F 30.2 °F 81% 30.28 in 7.0 mi NNW 12.7 mph - N/A   Scattered Clouds
3:56 AM 35.1 °F 28.6 °F 28.9 °F 78% 30.31 in 7.0 mi NNW 8.1 mph - N/A   Partly Cloudy
4:56 AM 34.0 °F 28.8 °F 30.0 °F 85% 30.32 in 7.0 mi NNW 5.8 mph - N/A   Clear
5:56 AM 33.1 °F 26.9 °F 28.0 °F 82% 30.33 in 8.0 mi NW 6.9 mph - N/A   Clear
6:04 AM 33.8 °F 27.7 °F 28.4 °F 81% 30.30 in 8.0 mi NW 6.9 mph - N/A   Mostly Cloudy
6:56 AM 33.1 °F 26.9 °F 28.0 °F 82% 30.35 in 8.0 mi NW 6.9 mph - N/A   Mostly Cloudy
7:56 AM 33.1 °F 27.7 °F 28.0 °F 82% 30.37 in 7.0 mi NNW 5.8 mph - N/A   Overcast
8:56 AM 34.0 °F 28.8 °F 27.0 °F 75% 30.38 in 9.0 mi North 5.8 mph - N/A   Mostly Cloudy
9:56 AM 37.9 °F 32.1 °F 26.1 °F 62% 30.40 in 10.0 mi North 8.1 mph - N/A   Mostly Cloudy
10:56 AM 39.9 °F 33.9 °F 24.1 °F 53% 30.39 in 10.0 mi NNW 9.2 mph - N/A   Mostly Cloudy
11:56 AM 42.1 °F 35.2 °F 23.0 °F 47% 30.37 in 10.0 mi NNW 12.7 mph 16.1 mph N/A   Mostly Cloudy
12:56 PM 43.0 °F 38.2 °F 21.0 °F 42% 30.35 in 10.0 mi North 8.1 mph - N/A   Scattered Clouds
1:56 PM 45.0 °F 41.8 °F 21.9 °F 40% 30.35 in 10.0 mi Variable 5.8 mph - N/A   Partly Cloudy
2:56 PM 48.0 °F - 19.9 °F 33% 30.35 in 10.0 mi Variable 6.9 mph - N/A   Partly Cloudy
3:56 PM 46.0 °F 41.4 °F 21.0 °F 37% 30.37 in 10.0 mi NNE 9.2 mph - N/A   Partly Cloudy
4:56 PM 43.0 °F 40.3 °F 23.0 °F 45% 30.38 in 10.0 mi North 4.6 mph - N/A   Partly Cloudy
5:56 PM 37.9 °F - 26.1 °F 62% 30.40 in 10.0 mi Calm Calm - N/A   Clear
6:56 PM 34.0 °F 31.0 °F 28.0 °F 79% 30.43 in 10.0 mi NNW 3.5 mph - N/A   Clear
7:56 PM 33.1 °F 30.0 °F 26.1 °F 75% 30.43 in 10.0 mi NNW 3.5 mph - N/A   Clear
8:56 PM 34.0 °F - 25.0 °F 70% 30.42 in 10.0 mi Calm Calm - N/A   Clear
9:56 PM 30.9 °F - 28.0 °F 89% 30.44 in 10.0 mi Calm Calm - N/A   Clear
10:56 PM 32.0 °F - 28.0 °F 85% 30.45 in 10.0 mi Calm Calm - N/A   Clear
11:56 PM 30.9 °F 26.2 °F 26.1 °F 82% 30.43 in 10.0 mi NNW 4.6 mph - N/A   Clear